^^
Saratoga-Weather Station Historical Data
Daily Summary for June 23, 2021 Units:  Metric    English   Both
Daily Weekly Monthly Yearly Custom
  High: Low: Average:
Temperature: 28.7 °C 15.4 °C 22.1 °C
Dew Point: 16.6 °C 13.6 °C 14.8 °C
Humidity: 91% 40% 66%
Wind Speed: 11.3km/h 0km/h 1.8km/h
Wind Gust: 16.1km/h - -
Wind- - ESE
Pressure: 1017.3 hPa 1009.5 hPa -
Precipitation: 0.0 mm    
Historical Graphs
 
 
Tabular Data for June 23, 2021
Time Temperature Dew Point Pressure Wind Wind Speed Wind Gust Humidity Rainfall Rate (Hourly) solar
00:03 18.4 °C 14.7 °C 1016.9 hPa Calm     79% 0.0 mm 0 W/m2
00:08 18.3 °C 14.6 °C 1016.9 hPa Calm   1.6 km/h 79% 0.0 mm 0 W/m2
00:13 18.2 °C 14.5 °C 1016.9 hPa Calm     79% 0.0 mm 0 W/m2
00:18 18.1 °C 14.6 °C 1017.3 hPa Calm   1.6 km/h 80% 0.0 mm 0 W/m2
00:23 18.1 °C 14.6 °C 1016.9 hPa Calm     80% 0.0 mm 0 W/m2
00:28 17.9 °C 14.4 °C 1017.3 hPa Calm   1.6 km/h 80% 0.0 mm 0 W/m2
00:33 17.9 °C 14.6 °C 1017.3 hPa Calm     81% 0.0 mm 0 W/m2
00:38 17.8 °C 14.5 °C 1017.3 hPa Calm     81% 0.0 mm 0 W/m2
00:43 17.7 °C 14.4 °C 1016.9 hPa Calm     81% 0.0 mm 0 W/m2
00:48 17.6 °C 14.5 °C 1016.9 hPa Calm     82% 0.0 mm 0 W/m2
00:53 17.5 °C 14.4 °C 1016.9 hPa Calm   1.6 km/h 82% 0.0 mm 0 W/m2
00:58 17.4 °C 14.5 °C 1017.3 hPa Calm     83% 0.0 mm 0 W/m2
01:03 17.3 °C 14.4 °C 1017.3 hPa Calm   1.6 km/h 83% 0.0 mm 0 W/m2
01:08 17.3 °C 14.4 °C 1017.3 hPa Calm     83% 0.0 mm 0 W/m2
01:13 17.2 °C 14.3 °C 1017.3 hPa Calm   1.6 km/h 83% 0.0 mm 0 W/m2
01:18 17.2 °C 14.3 °C 1017.3 hPa Calm     83% 0.0 mm 0 W/m2
01:23 17.1 °C 14.2 °C 1017.3 hPa Calm   1.6 km/h 83% 0.0 mm 0 W/m2
01:28 17 °C 14.3 °C 1017.3 hPa Calm     84% 0.0 mm 0 W/m2
01:33 16.9 °C 14.2 °C 1017.3 hPa Calm     84% 0.0 mm 0 W/m2
01:38 16.9 °C 14.4 °C 1017.3 hPa Calm     85% 0.0 mm 0 W/m2
01:43 16.8 °C 14.3 °C 1016.9 hPa Calm     85% 0.0 mm 0 W/m2
01:48 16.7 °C 14.2 °C 1016.9 hPa Calm     85% 0.0 mm 0 W/m2
01:53 16.7 °C 14.3 °C 1016.9 hPa Calm   1.6 km/h 86% 0.0 mm 0 W/m2
01:58 16.6 °C 14.2 °C 1016.9 hPa Calm   1.6 km/h 86% 0.0 mm 0 W/m2
02:03 16.6 °C 14.2 °C 1016.9 hPa Calm     86% 0.0 mm 0 W/m2
02:08 16.5 °C 14.1 °C 1016.9 hPa Calm     86% 0.0 mm 0 W/m2
02:13 16.4 °C 14.1 °C 1016.9 hPa Calm     86% 0.0 mm 0 W/m2
02:18 16.3 °C 14 °C 1016.9 hPa Calm     86% 0.0 mm 0 W/m2
02:23 16.3 °C 14 °C 1016.9 hPa Calm     86% 0.0 mm 0 W/m2
02:28 16.3 °C 14.1 °C 1016.9 hPa Calm     87% 0.0 mm 0 W/m2
02:33 16.2 °C 14 °C 1016.9 hPa Calm     87% 0.0 mm 0 W/m2
02:38 16.2 °C 14 °C 1016.9 hPa Calm     87% 0.0 mm 0 W/m2
02:43 16.1 °C 13.9 °C 1016.9 hPa Calm     87% 0.0 mm 0 W/m2
02:48 16.1 °C 13.9 °C 1016.9 hPa Calm     87% 0.0 mm 0 W/m2
02:53 16.1 °C 14.1 °C 1016.9 hPa Calm     88% 0.0 mm 0 W/m2
02:59 16 °C 14 °C 1016.9 hPa Calm     88% 0.0 mm 0 W/m2
03:04 16 °C 14 °C 1016.9 hPa Calm     88% 0.0 mm 0 W/m2
03:09 15.9 °C 13.9 °C 1016.9 hPa Calm     88% 0.0 mm 0 W/m2
03:14 15.8 °C 13.8 °C 1016.9 hPa Calm     88% 0.0 mm 0 W/m2
03:19 15.8 °C 13.8 °C 1016.9 hPa Calm     88% 0.0 mm 0 W/m2
03:24 15.7 °C 13.9 °C 1016.9 hPa Calm     89% 0.0 mm 0 W/m2
03:29 15.7 °C 13.9 °C 1016.9 hPa Calm     89% 0.0 mm 0 W/m2
03:34 15.7 °C 14.1 °C 1016.9 hPa Calm     90% 0.0 mm 0 W/m2
03:39 15.7 °C 14.1 °C 1016.9 hPa WNW 1.4 km/h 1.6 km/h 90% 0.0 mm 0 W/m2
03:44 15.7 °C 14.1 °C 1016.9 hPa Calm     90% 0.0 mm 0 W/m2
03:49 15.7 °C 14.1 °C 1016.9 hPa Calm     90% 0.0 mm 0 W/m2
03:54 15.7 °C 14.1 °C 1016.9 hPa Calm     90% 0.0 mm 0 W/m2
03:59 15.7 °C 14.2 °C 1016.6 hPa Calm     91% 0.0 mm 0 W/m2
04:04 15.7 °C 14.2 °C 1016.6 hPa Calm     91% 0.0 mm 0 W/m2
04:09 15.7 °C 14.2 °C 1016.9 hPa Calm   3.2 km/h 91% 0.0 mm 0 W/m2
04:14 15.7 °C 14.2 °C 1016.6 hPa Calm   3.2 km/h 91% 0.0 mm 0 W/m2
04:19 15.7 °C 14.2 °C 1016.6 hPa SSW 1.4 km/h 3.2 km/h 91% 0.0 mm 0 W/m2
04:24 15.8 °C 14.2 °C 1016.6 hPa SSW 3.2 km/h 3.2 km/h 90% 0.0 mm 0 W/m2
04:29 15.8 °C 14.2 °C 1016.6 hPa Calm   1.6 km/h 90% 0.0 mm 0 W/m2
04:34 15.8 °C 14.2 °C 1016.6 hPa Calm     90% 0.0 mm 0 W/m2
04:39 15.8 °C 14.2 °C 1016.6 hPa Calm   1.6 km/h 90% 0.0 mm 0 W/m2
04:44 15.8 °C 14.2 °C 1016.6 hPa Calm   1.6 km/h 90% 0.0 mm 0 W/m2
04:49 15.8 °C 14.2 °C 1016.6 hPa Calm   1.6 km/h 90% 0.0 mm 0 W/m2
04:54 15.8 °C 14.2 °C 1016.6 hPa Calm     90% 0.0 mm 0 W/m2
04:59 15.8 °C 14.2 °C 1016.6 hPa Calm   1.6 km/h 90% 0.0 mm 0 W/m2
05:04 15.8 °C 14.2 °C 1016.6 hPa Calm   1.6 km/h 90% 0.0 mm 0 W/m2
05:09 15.8 °C 14 °C 1016.3 hPa Calm     89% 0.0 mm 0 W/m2
05:14 15.8 °C 14.2 °C 1016.3 hPa Calm     90% 0.0 mm 0 W/m2
05:19 15.8 °C 14 °C 1016.3 hPa SSW 1.4 km/h 1.6 km/h 89% 0.0 mm 0 W/m2
05:24 15.9 °C 14.1 °C 1016.3 hPa Calm     89% 0.0 mm 0 W/m2
05:29 15.8 °C 14 °C 1016.3 hPa SSW 1.4 km/h 3.2 km/h 89% 0.0 mm 0 W/m2
05:34 15.8 °C 14 °C 1016.3 hPa Calm     89% 0.0 mm 0 W/m2
05:39 15.8 °C 14 °C 1016.3 hPa Calm     89% 0.0 mm 0 W/m2
05:44 15.7 °C 13.9 °C 1016.3 hPa Calm     89% 0.0 mm 0 W/m2
05:49 15.7 °C 13.9 °C 1016.3 hPa Calm     89% 0.0 mm 0 W/m2
05:54 15.6 °C 13.8 °C 1016.3 hPa Calm     89% 0.0 mm 0 W/m2
05:59 15.6 °C 14 °C 1016.3 hPa Calm   1.6 km/h 90% 0.0 mm 5 W/m2
06:04 15.5 °C 13.9 °C 1016.3 hPa Calm     90% 0.0 mm 7 W/m2
06:09 15.5 °C 13.9 °C 1016.3 hPa SSW 1.4 km/h 1.6 km/h 90% 0.0 mm 9 W/m2
06:14 15.4 °C 13.8 °C 1016.3 hPa Calm   1.6 km/h 90% 0.0 mm 12 W/m2
06:19 15.4 °C 13.9 °C 1016.3 hPa Calm     91% 0.0 mm 14 W/m2
06:24 15.4 °C 13.9 °C 1016.3 hPa Calm     91% 0.0 mm 18 W/m2
06:29 15.4 °C 13.9 °C 1016.3 hPa Calm     91% 0.0 mm 21 W/m2
06:34 15.4 °C 13.9 °C 1016.3 hPa Calm     91% 0.0 mm 25 W/m2
06:39 15.4 °C 13.9 °C 1016.3 hPa Calm     91% 0.0 mm 26 W/m2
06:44 15.5 °C 14 °C 1016.3 hPa Calm     91% 0.0 mm 30 W/m2
06:49 15.6 °C 14.1 °C 1016.3 hPa Calm     91% 0.0 mm 32 W/m2
06:54 15.6 °C 14.1 °C 1016.3 hPa Calm     91% 0.0 mm 35 W/m2
06:59 15.7 °C 14.2 °C 1016.3 hPa Calm     91% 0.0 mm 39 W/m2
07:04 15.7 °C 14.2 °C 1016.3 hPa Calm     91% 0.0 mm 40 W/m2
07:09 15.8 °C 14.3 °C 1016.3 hPa Calm     91% 0.0 mm 42 W/m2
07:15 15.9 °C 14.4 °C 1016.3 hPa Calm     91% 0.0 mm 46 W/m2
07:20 16 °C 14.5 °C 1016.3 hPa Calm     91% 0.0 mm 47 W/m2
07:25 16.1 °C 14.5 °C 1016.3 hPa Calm     90% 0.0 mm 51 W/m2
07:30 16.2 °C 14.6 °C 1016.3 hPa Calm     90% 0.0 mm 54 W/m2
07:35 16.3 °C 14.5 °C 1016.3 hPa Calm     89% 0.0 mm 56 W/m2
07:40 16.5 °C 14.5 °C 1016.3 hPa Calm     88% 0.0 mm 62 W/m2
07:45 16.7 °C 14.5 °C 1016.3 hPa Calm     87% 0.0 mm 63 W/m2
07:50 16.9 °C 14.5 °C 1016.3 hPa Calm   4.8 km/h 86% 0.0 mm 63 W/m2
07:55 17.1 °C 14.6 °C 1016.3 hPa Calm     85% 0.0 mm 118 W/m2
08:00 17.2 °C 14.7 °C 1016.3 hPa Calm   3.2 km/h 85% 0.0 mm 172 W/m2
08:05 17.4 °C 14.9 °C 1016.3 hPa NE 3.2 km/h 4.8 km/h 85% 0.0 mm 123 W/m2
08:10 17.9 °C 15.2 °C 1016.3 hPa NE 4.7 km/h 4.8 km/h 84% 0.0 mm 83 W/m2
08:15 18.3 °C 15.2 °C 1016.3 hPa East 3.2 km/h 3.2 km/h 82% 0.0 mm 79 W/m2
08:20 18.6 °C 15.3 °C 1016.3 hPa Calm     81% 0.0 mm 81 W/m2
08:25 18.7 °C 15.2 °C 1016.3 hPa NW 3.2 km/h 4.8 km/h 80% 0.0 mm 83 W/m2
08:30 18.7 °C 15.2 °C 1016.3 hPa Calm   6.4 km/h 80% 0.0 mm 83 W/m2
08:35 19 °C 15.5 °C 1016.3 hPa ENE 3.2 km/h 3.2 km/h 80% 0.0 mm 84 W/m2
08:40 19.2 °C 15.5 °C 1016.3 hPa Calm     79% 0.0 mm 86 W/m2
08:45 19.5 °C 15.6 °C 1016.3 hPa Calm   6.4 km/h 78% 0.0 mm 88 W/m2
08:50 19.7 °C 15.6 °C 1016.3 hPa ENE 4.7 km/h 4.8 km/h 77% 0.0 mm 90 W/m2
08:55 19.8 °C 15.4 °C 1016.3 hPa ESE 3.2 km/h 4.8 km/h 76% 0.0 mm 91 W/m2
09:00 19.8 °C 15.4 °C 1016.3 hPa ENE 3.2 km/h 4.8 km/h 76% 0.0 mm 109 W/m2
09:05 19.9 °C 15.3 °C 1016.3 hPa North 3.2 km/h 4.8 km/h 75% 0.0 mm 211 W/m2
09:10 20.1 °C 15.5 °C 1016.3 hPa NE 1.4 km/h 3.2 km/h 75% 0.0 mm 353 W/m2
09:15 20.2 °C 15.4 °C 1016.3 hPa NNE 1.4 km/h 1.6 km/h 74% 0.0 mm 380 W/m2
09:20 20.2 °C 15.2 °C 1016.3 hPa North 3.2 km/h 4.8 km/h 73% 0.0 mm 396 W/m2
09:25 20.4 °C 15.6 °C 1016.3 hPa ENE 1.4 km/h 4.8 km/h 74% 0.0 mm 413 W/m2
09:30 20.5 °C 15.7 °C 1015.9 hPa East 1.4 km/h 3.2 km/h 74% 0.0 mm 429 W/m2
09:35 20.7 °C 15.5 °C 1015.9 hPa ESE 1.4 km/h 6.4 km/h 72% 0.0 mm 443 W/m2
09:40 20.8 °C 15.1 °C 1015.9 hPa ENE 3.2 km/h 8 km/h 70% 0.0 mm 459 W/m2
09:45 20.8 °C 15.3 °C 1015.9 hPa Calm   3.2 km/h 71% 0.0 mm 468 W/m2
09:50 20.9 °C 15.4 °C 1015.9 hPa NE 3.2 km/h 8 km/h 71% 0.0 mm 485 W/m2
09:55 21.2 °C 15.5 °C 1015.9 hPa SE 3.2 km/h 6.4 km/h 70% 0.0 mm 499 W/m2
10:00 21.3 °C 15.6 °C 1015.9 hPa East 3.2 km/h 6.4 km/h 70% 0.0 mm 457 W/m2
10:05 21.4 °C 15.7 °C 1015.9 hPa ENE 1.4 km/h 6.4 km/h 70% 0.0 mm 111 W/m2
10:10 21.6 °C 15.9 °C 1015.6 hPa NNW 3.2 km/h 4.8 km/h 70% 0.0 mm 510 W/m2
10:15 21.8 °C 15.6 °C 1015.6 hPa NNW 6.4 km/h 6.4 km/h 68% 0.0 mm 552 W/m2
10:20 21.9 °C 16 °C 1015.6 hPa NNW 4.7 km/h 4.8 km/h 69% 0.0 mm 563 W/m2
10:25 22.1 °C 15.7 °C 1015.6 hPa NE 1.4 km/h 6.4 km/h 67% 0.0 mm 578 W/m2
10:30 22.3 °C 15.9 °C 1015.6 hPa East 3.2 km/h 3.2 km/h 67% 0.0 mm 589 W/m2
10:35 22.5 °C 15.8 °C 1015.6 hPa East 7.9 km/h 11.3 km/h 66% 0.0 mm 603 W/m2
10:40 22.7 °C 16 °C 1015.6 hPa Calm   6.4 km/h 66% 0.0 mm 613 W/m2
10:45 22.8 °C 15.9 °C 1015.6 hPa SW 4.7 km/h 4.8 km/h 65% 0.0 mm 621 W/m2
10:50 22.9 °C 15.7 °C 1015.6 hPa NNE 1.4 km/h 6.4 km/h 64% 0.0 mm 636 W/m2
10:55 23.2 °C 16.3 °C 1015.2 hPa NE 3.2 km/h 4.8 km/h 65% 0.0 mm 647 W/m2
11:00 23.5 °C 16 °C 1015.2 hPa ENE 3.2 km/h 9.7 km/h 63% 0.0 mm 654 W/m2
11:05 23.7 °C 16.2 °C 1015.2 hPa Calm   6.4 km/h 63% 0.0 mm 666 W/m2
11:10 23.9 °C 16.2 °C 1015.2 hPa ENE 4.7 km/h 8 km/h 62% 0.0 mm 671 W/m2
11:15 24.1 °C 16.6 °C 1015.2 hPa Calm   3.2 km/h 63% 0.0 mm 682 W/m2
11:20 24.4 °C 16.4 °C 1015.2 hPa ESE 3.2 km/h 8 km/h 61% 0.0 mm 694 W/m2
11:25 24.7 °C 16.4 °C 1015.2 hPa Calm   9.7 km/h 60% 0.0 mm 708 W/m2
11:30 24.8 °C 16.2 °C 1014.9 hPa ENE 4.7 km/h 11.3 km/h 59% 0.0 mm 717 W/m2
11:35 25.1 °C 16.3 °C 1014.9 hPa East 3.2 km/h 8 km/h 58% 0.0 mm 722 W/m2
11:40 25.2 °C 16.1 °C 1014.9 hPa NNE 3.2 km/h 9.7 km/h 57% 0.0 mm 733 W/m2
11:45 25 °C 16.4 °C 1014.9 hPa ENE 6.4 km/h 9.7 km/h 59% 0.0 mm 742 W/m2
11:50 25.1 °C 15.7 °C 1014.6 hPa Calm   4.8 km/h 56% 0.0 mm 752 W/m2
12:00 25.6 °C 15.9 °C 1014.6 hPa East 3.2 km/h 3.2 km/h 55% 0.0 mm 768 W/m2
12:05 25.7 °C 15.4 °C 1014.6 hPa ENE 3.2 km/h 3.2 km/h 53% 0.0 mm 779 W/m2
12:10 25.9 °C 15.6 °C 1014.6 hPa ENE 9.7 km/h 11.3 km/h 53% 0.0 mm 784 W/m2
12:15 26.1 °C 16.4 °C 1014.2 hPa ESE 4.7 km/h 6.4 km/h 55% 0.0 mm 795 W/m2
12:20 26.1 °C 15.5 °C 1014.2 hPa East 3.2 km/h 8 km/h 52% 0.0 mm 812 W/m2
12:25 26.2 °C 15.6 °C 1014.2 hPa ENE 1.4 km/h 8 km/h 52% 0.0 mm 805 W/m2
12:30 26.3 °C 16 °C 1014.2 hPa SW 1.4 km/h 6.4 km/h 53% 0.0 mm 812 W/m2
12:35 26.4 °C 15.4 °C 1014.2 hPa ENE 1.4 km/h 9.7 km/h 51% 0.0 mm 828 W/m2
12:40 26.4 °C 16.3 °C 1014.2 hPa SE 4.7 km/h 8 km/h 54% 0.0 mm 847 W/m2
12:45 26.6 °C 15.3 °C 1014.2 hPa Calm   6.4 km/h 50% 0.0 mm 838 W/m2
12:50 26.7 °C 15.7 °C 1013.9 hPa East 3.2 km/h 3.2 km/h 51% 0.0 mm 838 W/m2
12:55 26.7 °C 15.7 °C 1013.9 hPa East 6.4 km/h 9.7 km/h 51% 0.0 mm 844 W/m2
13:00 26.7 °C 15.4 °C 1013.9 hPa East 1.4 km/h 14.5 km/h 50% 0.0 mm 853 W/m2
13:05 26.7 °C 15.4 °C 1013.9 hPa SE 6.4 km/h 8 km/h 50% 0.0 mm 844 W/m2
13:10 26.7 °C 14.8 °C 1013.9 hPa NNE 7.9 km/h 9.7 km/h 48% 0.0 mm 851 W/m2
13:15 26.7 °C 15.1 °C 1013.9 hPa ENE 1.4 km/h 4.8 km/h 49% 0.0 mm 863 W/m2
13:20 26.8 °C 15.5 °C 1013.9 hPa ESE 1.4 km/h 6.4 km/h 50% 0.0 mm 872 W/m2
13:25 26.9 °C 14.3 °C 1013.5 hPa NNW 1.4 km/h 14.5 km/h 46% 0.0 mm 881 W/m2
13:30 26.8 °C 14.9 °C 1013.5 hPa Calm   6.4 km/h 48% 0.0 mm 874 W/m2
13:35 26.8 °C 14.5 °C 1013.5 hPa East 1.4 km/h 14.5 km/h 47% 0.0 mm 888 W/m2
13:40 27 °C 14.4 °C 1013.5 hPa Calm   6.4 km/h 46% 0.0 mm 865 W/m2
13:45 27.1 °C 14.8 °C 1013.5 hPa East 11.3 km/h 11.3 km/h 47% 0.0 mm 861 W/m2
13:50 27.1 °C 14.1 °C 1013.5 hPa East 4.7 km/h 9.7 km/h 45% 0.0 mm 872 W/m2
13:55 27.1 °C 14.5 °C 1013.2 hPa NE 1.4 km/h 4.8 km/h 46% 0.0 mm 865 W/m2
14:00 27.2 °C 14.9 °C 1013.2 hPa NE 4.7 km/h 4.8 km/h 47% 0.0 mm 868 W/m2
14:05 27.3 °C 14.3 °C 1013.2 hPa ENE 4.7 km/h 8 km/h 45% 0.0 mm 858 W/m2
14:10 27.5 °C 15.5 °C 1013.2 hPa East 4.7 km/h 8 km/h 48% 0.0 mm 867 W/m2
14:16 27.6 °C 13.9 °C 1013.2 hPa SE 4.7 km/h 11.3 km/h 43% 0.0 mm 872 W/m2
14:21 27.4 °C 14.8 °C 1012.9 hPa SE 7.9 km/h 8 km/h 46% 0.0 mm 877 W/m2
14:26 27.4 °C 14.4 °C 1012.9 hPa East 3.2 km/h 12.9 km/h 45% 0.0 mm 865 W/m2
14:31 27.4 °C 14.1 °C 1012.9 hPa SE 3.2 km/h 8 km/h 44% 0.0 mm 849 W/m2
14:36 27.3 °C 14 °C 1012.9 hPa NNW 1.4 km/h 6.4 km/h 44% 0.0 mm 833 W/m2
14:41 27.3 °C 15.3 °C 1012.9 hPa NE 1.4 km/h 6.4 km/h 48% 0.0 mm 856 W/m2
14:46 27.6 °C 15.3 °C 1012.9 hPa East 1.4 km/h 14.5 km/h 47% 0.0 mm 867 W/m2
14:51 27.7 °C 15.4 °C 1012.9 hPa SE 3.2 km/h 4.8 km/h 47% 0.0 mm 853 W/m2
14:56 27.7 °C 14.7 °C 1012.9 hPa East 4.7 km/h 14.5 km/h 45% 0.0 mm 858 W/m2
15:01 27.8 °C 13.7 °C 1012.9 hPa NNE 3.2 km/h 11.3 km/h 42% 0.0 mm 874 W/m2
15:06 27.8 °C 14.4 °C 1012.9 hPa WNW 4.7 km/h 6.4 km/h 44% 0.0 mm 854 W/m2
15:11 27.8 °C 15.8 °C 1012.9 hPa ESE 3.2 km/h 8 km/h 48% 0.0 mm 800 W/m2
15:16 27.9 °C 15.9 °C 1012.9 hPa NNW 3.2 km/h 9.7 km/h 48% 0.0 mm 826 W/m2
15:21 27.9 °C 14.9 °C 1012.5 hPa NNW 3.2 km/h 12.9 km/h 45% 0.0 mm 668 W/m2
15:26 27.8 °C 15.1 °C 1012.5 hPa SE 1.4 km/h 4.8 km/h 46% 0.0 mm 721 W/m2
15:31 27.8 °C 15.8 °C 1012.5 hPa SE 4.7 km/h 6.4 km/h 48% 0.0 mm 561 W/m2
15:36 27.9 °C 15.5 °C 1012.5 hPa SE 1.4 km/h 4.8 km/h 47% 0.0 mm 563 W/m2
15:41 28 °C 16.3 °C 1012.5 hPa ENE 3.2 km/h 3.2 km/h 49% 0.0 mm 534 W/m2
15:46 28.1 °C 15 °C 1012.2 hPa East 3.2 km/h 4.8 km/h 45% 0.0 mm 668 W/m2
15:51 28.2 °C 15.5 °C 1012.2 hPa Calm   3.2 km/h 46% 0.0 mm 812 W/m2
15:56 28.4 °C 15.7 °C 1012.2 hPa East 6.4 km/h 6.4 km/h 46% 0.0 mm 671 W/m2
16:01 28.5 °C 15.1 °C 1012.2 hPa East 3.2 km/h 9.7 km/h 44% 0.0 mm 647 W/m2
16:06 28.6 °C 15.5 °C 1012.2 hPa North 1.4 km/h 3.2 km/h 45% 0.0 mm 693 W/m2
16:11 28.6 °C 16.2 °C 1012.2 hPa Calm   3.2 km/h 47% 0.0 mm 462 W/m2
16:16 28.5 °C 15.1 °C 1011.9 hPa ENE 3.2 km/h 9.7 km/h 44% 0.0 mm 396 W/m2
16:21 28.3 °C 14.5 °C 1011.9 hPa SE 3.2 km/h 3.2 km/h 43% 0.0 mm 684 W/m2
16:26 28.4 °C 15.7 °C 1011.9 hPa NE 3.2 km/h 3.2 km/h 46% 0.0 mm 705 W/m2
16:31 28.6 °C 14.8 °C 1011.9 hPa Calm   11.3 km/h 43% 0.0 mm 659 W/m2
16:36 28.7 °C 14.9 °C 1011.9 hPa Calm   6.4 km/h 43% 0.0 mm 594 W/m2
16:41 28.6 °C 14.8 °C 1011.9 hPa ENE 7.9 km/h 16.1 km/h 43% 0.0 mm 373 W/m2
16:46 28.3 °C 14.5 °C 1011.9 hPa NNE 1.4 km/h 8 km/h 43% 0.0 mm 424 W/m2
16:51 28.2 °C 14.8 °C 1011.9 hPa Calm   16.1 km/h 44% 0.0 mm 547 W/m2
16:56 28.3 °C 14.5 °C 1011.9 hPa NNE 1.4 km/h 4.8 km/h 43% 0.0 mm 390 W/m2
17:01 28.2 °C 15.5 °C 1011.9 hPa SE 1.4 km/h 9.7 km/h 46% 0.0 mm 397 W/m2
17:06 28.3 °C 14.5 °C 1011.5 hPa East 6.4 km/h 11.3 km/h 43% 0.0 mm 694 W/m2
17:11 28.4 °C 14.2 °C 1011.5 hPa North 1.4 km/h 6.4 km/h 42% 0.0 mm 705 W/m2
17:16 28.7 °C 14.1 °C 1011.5 hPa East 7.9 km/h 11.3 km/h 41% 0.0 mm 529 W/m2
17:21 28.7 °C 14.1 °C 1011.5 hPa ENE 4.7 km/h 8 km/h 41% 0.0 mm 519 W/m2
17:26 28.4 °C 15.3 °C 1011.5 hPa East 1.4 km/h 11.3 km/h 45% 0.0 mm 169 W/m2
17:31 28.3 °C 14.5 °C 1011.2 hPa ESE 4.7 km/h 6.4 km/h 43% 0.0 mm 629 W/m2
17:36 28.4 °C 14.6 °C 1011.2 hPa SE 4.7 km/h 4.8 km/h 43% 0.0 mm 601 W/m2
17:41 28.4 °C 13.9 °C 1011.2 hPa ENE 7.9 km/h 14.5 km/h 41% 0.0 mm 601 W/m2
17:46 28.4 °C 13.9 °C 1011.2 hPa East 4.7 km/h 9.7 km/h 41% 0.0 mm 543 W/m2
17:51 28.5 °C 13.6 °C 1011.2 hPa SSE 6.4 km/h 8 km/h 40% 0.0 mm 557 W/m2
17:56 28.5 °C 13.6 °C 1011.2 hPa East 3.2 km/h 4.8 km/h 40% 0.0 mm 494 W/m2
18:01 28.4 °C 14.6 °C 1011.2 hPa Calm   9.7 km/h 43% 0.0 mm 197 W/m2
18:06 28.3 °C 14.2 °C 1011.2 hPa East 4.7 km/h 6.4 km/h 42% 0.0 mm 512 W/m2
18:11 28.4 °C 14.6 °C 1011.2 hPa East 3.2 km/h 9.7 km/h 43% 0.0 mm 519 W/m2
18:16 28.7 °C 14.1 °C 1011.2 hPa ESE 3.2 km/h 6.4 km/h 41% 0.0 mm 499 W/m2
18:21 28.7 °C 14.5 °C 1010.8 hPa Calm   11.3 km/h 42% 0.0 mm 299 W/m2
18:26 28.6 °C 15.2 °C 1010.8 hPa Calm   4.8 km/h 44% 0.0 mm 403 W/m2
18:31 28.6 °C 14.4 °C 1010.8 hPa Calm   8 km/h 42% 0.0 mm 436 W/m2
18:36 28.6 °C 14.4 °C 1010.5 hPa East 3.2 km/h 6.4 km/h 42% 0.0 mm 417 W/m2
18:41 28.5 °C 14 °C 1010.5 hPa NE 6.4 km/h 14.5 km/h 41% 0.0 mm 390 W/m2
18:46 28.6 °C 15.5 °C 1010.5 hPa East 3.2 km/h 4.8 km/h 45% 0.0 mm 353 W/m2
18:51 28.6 °C 14.8 °C 1010.5 hPa SSE 4.7 km/h 9.7 km/h 43% 0.0 mm 330 W/m2
18:56 28.6 °C 14.4 °C 1010.5 hPa ENE 4.7 km/h 16.1 km/h 42% 0.0 mm 288 W/m2
19:01 28.3 °C 14.2 °C 1010.2 hPa Calm   6.4 km/h 42% 0.0 mm 176 W/m2
19:06 27.9 °C 14.2 °C 1010.2 hPa ENE 3.2 km/h 16.1 km/h 43% 0.0 mm 95 W/m2
19:11 27.7 °C 14.3 °C 1010.2 hPa Calm   1.6 km/h 44% 0.0 mm 76 W/m2
19:16 27.4 °C 14.8 °C 1010.2 hPa ENE 1.4 km/h 3.2 km/h 46% 0.0 mm 77 W/m2
19:21 27 °C 14.4 °C 1010.2 hPa SSE 3.2 km/h 3.2 km/h 46% 0.0 mm 86 W/m2
19:26 26.8 °C 14.5 °C 1010.2 hPa East 3.2 km/h 9.7 km/h 47% 0.0 mm 95 W/m2
19:31 26.7 °C 15.1 °C 1010.2 hPa Calm   1.6 km/h 49% 0.0 mm 239 W/m2
19:36 26.7 °C 14.8 °C 1010.2 hPa ENE 3.2 km/h 14.5 km/h 48% 0.0 mm 139 W/m2
19:41 26.8 °C 14.5 °C 1010.2 hPa ENE 3.2 km/h 3.2 km/h 47% 0.0 mm 230 W/m2
19:46 26.9 °C 15 °C 1010.2 hPa NE 4.7 km/h 14.5 km/h 48% 0.0 mm 255 W/m2
19:51 27.1 °C 14.8 °C 1010.2 hPa ENE 1.4 km/h 9.7 km/h 47% 0.0 mm 225 W/m2
19:56 27.2 °C 15.2 °C 1009.8 hPa ENE 7.9 km/h 9.7 km/h 48% 0.0 mm 116 W/m2
20:01 26.9 °C 14.6 °C 1009.8 hPa ENE 6.4 km/h 6.4 km/h 47% 0.0 mm 86 W/m2
20:06 26.7 °C 14.5 °C 1009.8 hPa East 3.2 km/h 4.8 km/h 47% 0.0 mm 88 W/m2
20:11 26.4 °C 14.8 °C 1009.8 hPa East 4.7 km/h 4.8 km/h 49% 0.0 mm 97 W/m2
20:16 26.2 °C 14.6 °C 1009.8 hPa East 1.4 km/h 8 km/h 49% 0.0 mm 83 W/m2
20:21 26.1 °C 14.2 °C 1009.8 hPa NE 1.4 km/h 6.4 km/h 48% 0.0 mm 84 W/m2
20:26 26 °C 14.1 °C 1009.8 hPa East 3.2 km/h 14.5 km/h 48% 0.0 mm 84 W/m2
20:31 26 °C 14.1 °C 1009.8 hPa East 4.7 km/h 6.4 km/h 48% 0.0 mm 58 W/m2
20:36 25.9 °C 14 °C 1009.8 hPa ENE 6.4 km/h 14.5 km/h 48% 0.0 mm 46 W/m2
20:41 25.8 °C 14.3 °C 1009.8 hPa ENE 3.2 km/h 4.8 km/h 49% 0.0 mm 40 W/m2
20:46 25.6 °C 14.1 °C 1009.8 hPa ESE 3.2 km/h 11.3 km/h 49% 0.0 mm 33 W/m2
20:51 25.4 °C 14.5 °C 1009.8 hPa ENE 1.4 km/h 4.8 km/h 51% 0.0 mm 32 W/m2
20:56 25.2 °C 14.3 °C 1009.8 hPa ESE 6.4 km/h 11.3 km/h 51% 0.0 mm 25 W/m2
21:01 25.1 °C 14.6 °C 1009.8 hPa East 4.7 km/h 6.4 km/h 52% 0.0 mm 21 W/m2
21:06 24.9 °C 14.7 °C 1009.8 hPa East 1.4 km/h 3.2 km/h 53% 0.0 mm 16 W/m2
21:11 24.8 °C 15.1 °C 1009.8 hPa Calm   3.2 km/h 55% 0.0 mm 11 W/m2
21:16 24.6 °C 15 °C 1009.8 hPa ESE 6.4 km/h 9.7 km/h 55% 0.0 mm 7 W/m2
21:21 24.4 °C 14.8 °C 1009.8 hPa East 6.4 km/h 14.5 km/h 55% 0.0 mm 5 W/m2
21:26 24.3 °C 15 °C 1009.8 hPa SE 1.4 km/h 3.2 km/h 56% 0.0 mm 0 W/m2
21:31 24.1 °C 14.8 °C 1009.8 hPa Calm   14.5 km/h 56% 0.0 mm 0 W/m2
21:36 23.9 °C 15.1 °C 1009.8 hPa East 3.2 km/h 6.4 km/h 58% 0.0 mm 0 W/m2
21:41 23.7 °C 15.2 °C 1009.8 hPa Calm   9.7 km/h 59% 0.0 mm 0 W/m2
21:46 23.3 °C 14.8 °C 1009.8 hPa ENE 1.4 km/h 3.2 km/h 59% 0.0 mm 0 W/m2
21:51 23.1 °C 14.9 °C 1010.2 hPa ESE 1.4 km/h 6.4 km/h 60% 0.0 mm 0 W/m2
21:56 22.9 °C 15 °C 1010.2 hPa Calm   1.6 km/h 61% 0.0 mm 0 W/m2
22:01 22.7 °C 15 °C 1010.2 hPa Calm     62% 0.0 mm 0 W/m2
22:06 22.5 °C 14.9 °C 1009.8 hPa ENE 1.4 km/h 4.8 km/h 62% 0.0 mm 0 W/m2
22:11 22.4 °C 15 °C 1009.8 hPa Calm     63% 0.0 mm 0 W/m2
22:16 22.2 °C 14.8 °C 1009.5 hPa Calm   1.6 km/h 63% 0.0 mm 0 W/m2
22:21 22.1 °C 14.7 °C 1009.8 hPa ENE 1.4 km/h 3.2 km/h 63% 0.0 mm 0 W/m2
22:26 21.9 °C 14.8 °C 1010.2 hPa Calm   1.6 km/h 64% 0.0 mm 0 W/m2
22:31 21.8 °C 15.2 °C 1010.2 hPa Calm   3.2 km/h 66% 0.0 mm 0 W/m2
22:36 21.6 °C 15 °C 1010.2 hPa Calm     66% 0.0 mm 0 W/m2
22:41 21.4 °C 15 °C 1010.2 hPa Calm     67% 0.0 mm 0 W/m2
22:46 21.3 °C 14.9 °C 1010.2 hPa ENE 1.4 km/h 1.6 km/h 67% 0.0 mm 0 W/m2
22:51 21.1 °C 15 °C 1009.8 hPa Calm     68% 0.0 mm 0 W/m2
22:56 21 °C 14.9 °C 1009.8 hPa SE 3.2 km/h 3.2 km/h 68% 0.0 mm 0 W/m2
23:01 20.9 °C 15 °C 1009.8 hPa Calm   1.6 km/h 69% 0.0 mm 0 W/m2
23:07 20.8 °C 14.9 °C 1009.8 hPa SE 1.4 km/h 3.2 km/h 69% 0.0 mm 0 W/m2
23:12 20.7 °C 15 °C 1009.8 hPa Calm   1.6 km/h 70% 0.0 mm 0 W/m2
23:17 20.6 °C 14.9 °C 1009.5 hPa SE 1.4 km/h 1.6 km/h 70% 0.0 mm 0 W/m2
23:22 20.4 °C 15 °C 1009.8 hPa SE 1.4 km/h 1.6 km/h 71% 0.0 mm 0 W/m2
23:27 20.3 °C 14.9 °C 1009.5 hPa Calm     71% 0.0 mm 0 W/m2
23:32 20.1 °C 14.9 °C 1009.5 hPa Calm     72% 0.0 mm 0 W/m2
23:37 20 °C 14.8 °C 1009.5 hPa Calm     72% 0.0 mm 0 W/m2
23:42 19.9 °C 14.9 °C 1009.5 hPa Calm   1.6 km/h 73% 0.0 mm 0 W/m2
23:47 19.8 °C 14.8 °C 1009.5 hPa Calm   3.2 km/h 73% 0.0 mm 0 W/m2
23:52 19.7 °C 14.7 °C 1009.5 hPa Calm   1.6 km/h 73% 0.0 mm 0 W/m2
23:57 19.7 °C 14.9 °C 1009.5 hPa Calm   1.6 km/h 74% 0.0 mm 0 W/m2
Juneau County Weather
Compliments of Weather Underground - 4 mb